Time,TemperatureF,DewpointF,PressureIn,WindDirection,WindDirectionDegrees,WindSpeedMPH,WindSpeedGustMPH,Humidity,HourlyPrecipIn,Conditions,Clouds,dailyrainin,SoftwareType,DateUTC
2013-04-05 00:02:00,55.0,55.0,29.91,North,360,2.0,5.0,99,0.00,,,0.14,,2013-04-05 07:02:00,
2013-04-05 00:12:00,55.0,55.0,29.91,North,360,2.0,5.0,99,0.00,,,0.14,,2013-04-05 07:12:00,
2013-04-05 00:22:00,55.0,55.0,29.91,North,360,2.0,5.0,99,0.00,,,0.14,,2013-04-05 07:22:00,
2013-04-05 00:31:00,55.0,55.0,29.91,North,360,2.0,5.0,99,0.00,,,0.14,,2013-04-05 07:31:00,
2013-04-05 00:42:00,55.0,55.0,29.91,North,360,2.0,5.0,99,0.00,,,0.14,,2013-04-05 07:42:00,
2013-04-05 00:52:00,55.0,55.0,29.91,North,360,2.0,5.0,99,0.00,,,0.14,,2013-04-05 07:52:00,
2013-04-05 01:02:00,55.0,55.0,29.91,North,360,2.0,5.0,99,0.00,,,0.14,,2013-04-05 08:02:00,
2013-04-05 01:12:00,55.0,55.0,29.91,North,360,2.0,5.0,99,0.00,,,0.14,,2013-04-05 08:12:00,
2013-04-05 01:22:00,55.0,55.0,29.91,North,360,2.0,5.0,99,0.00,,,0.14,,2013-04-05 08:22:00,
2013-04-05 01:32:00,55.0,55.0,29.91,North,360,2.0,5.0,99,0.00,,,0.14,,2013-04-05 08:32:00,
2013-04-05 01:42:00,55.0,55.0,29.91,North,360,2.0,5.0,99,0.00,,,0.14,,2013-04-05 08:42:00,
2013-04-05 01:52:00,55.0,55.0,29.91,North,360,2.0,5.0,99,0.00,,,0.14,,2013-04-05 08:52:00,
2013-04-05 02:02:00,55.0,55.0,29.94,NE,45,1.0,4.0,99,0.00,,,0.14,,2013-04-05 09:02:00,
2013-04-05 02:12:00,55.0,55.0,29.94,NE,45,1.0,4.0,99,0.00,,,0.14,,2013-04-05 09:12:00,
2013-04-05 02:22:00,55.0,55.0,29.93,NE,45,0.0,2.0,99,0.00,,,0.14,,2013-04-05 09:22:00,
2013-04-05 02:32:00,55.0,55.0,29.94,NE,45,0.0,3.0,99,0.00,,,0.14,,2013-04-05 09:32:00,
2013-04-05 02:42:00,55.0,55.0,29.94,NE,45,0.0,3.0,99,0.00,,,0.14,,2013-04-05 09:42:00,
2013-04-05 02:52:00,55.0,55.0,29.94,NE,45,0.0,2.0,99,0.00,,,0.14,,2013-04-05 09:52:00,
2013-04-05 03:02:00,55.0,55.0,29.94,NE,45,0.0,2.0,99,0.00,,,0.14,,2013-04-05 10:02:00,
2013-04-05 03:12:00,55.0,55.0,29.94,NE,45,0.0,2.0,99,0.00,,,0.14,,2013-04-05 10:12:00,
2013-04-05 03:23:00,55.0,55.0,29.93,North,0,0.0,1.0,99,0.00,,,0.14,,2013-04-05 10:23:00,
2013-04-05 03:32:00,55.0,55.0,29.93,North,0,0.0,2.0,99,0.00,,,0.14,,2013-04-05 10:32:00,
2013-04-05 03:43:00,55.0,55.0,29.93,North,0,0.0,2.0,99,0.00,,,0.14,,2013-04-05 10:43:00,
2013-04-05 03:53:00,55.0,55.0,29.93,North,0,0.0,1.0,99,0.00,,,0.14,,2013-04-05 10:53:00,
2013-04-05 04:02:00,55.0,55.0,29.93,North,0,0.0,1.0,99,0.00,,,0.13,,2013-04-05 11:02:00,
2013-04-05 04:12:00,55.0,55.0,29.93,North,0,0.0,1.0,99,0.00,,,0.13,,2013-04-05 11:12:00,
2013-04-05 04:21:00,55.0,55.0,29.93,North,0,0.0,0.0,99,0.00,,,0.13,,2013-04-05 11:21:00,
2013-04-05 04:32:00,55.0,55.0,29.93,North,360,0.0,1.0,99,0.00,,,0.12,,2013-04-05 11:32:00,
2013-04-05 04:42:00,55.0,55.0,29.93,North,360,0.0,1.0,99,0.00,,,0.12,,2013-04-05 11:42:00,
2013-04-05 04:52:00,55.0,55.0,29.93,North,360,0.0,1.0,99,0.00,,,0.12,,2013-04-05 11:52:00,
2013-04-05 05:02:00,55.0,55.0,29.93,North,360,0.0,1.0,99,0.00,,,0.11,,2013-04-05 12:02:00,
2013-04-05 05:11:00,55.0,55.0,29.93,North,360,0.0,1.0,99,0.00,,,0.11,,2013-04-05 12:11:00,
2013-04-05 05:22:00,55.0,55.0,29.93,North,0,0.0,1.0,99,0.00,,,0.11,,2013-04-05 12:22:00,
2013-04-05 05:32:00,55.0,55.0,29.93,North,0,0.0,1.0,99,0.00,,,0.07,,2013-04-05 12:32:00,
2013-04-05 05:42:00,55.0,55.0,29.93,North,0,0.0,1.0,99,0.00,,,0.07,,2013-04-05 12:42:00,
2013-04-05 05:52:00,55.0,55.0,29.93,North,0,0.0,1.0,99,0.00,,,0.05,,2013-04-05 12:52:00,
2013-04-05 06:01:00,55.0,55.0,29.93,NE,45,0.0,1.0,99,0.00,,,0.05,,2013-04-05 13:01:00,
2013-04-05 06:12:00,55.0,55.0,29.93,NE,45,0.0,1.0,99,0.00,,,0.05,,2013-04-05 13:12:00,
2013-04-05 06:22:00,55.0,55.0,29.94,North,0,0.0,1.0,99,0.00,,,0.05,,2013-04-05 13:22:00,
2013-04-05 06:32:00,55.0,55.0,29.94,North,0,0.0,0.0,99,0.00,,,0.05,,2013-04-05 13:32:00,
2013-04-05 06:42:00,55.0,55.0,29.94,North,0,0.0,0.0,99,0.00,,,0.05,,2013-04-05 13:42:00,
2013-04-05 06:52:00,55.0,55.0,29.94,North,0,0.0,0.0,99,0.00,,,0.05,,2013-04-05 13:52:00,
2013-04-05 07:02:00,54.0,54.0,29.94,North,0,0.0,2.0,99,0.00,,,0.04,,2013-04-05 14:02:00,
2013-04-05 07:12:00,54.0,54.0,29.94,North,0,0.0,2.0,99,0.00,,,0.04,,2013-04-05 14:12:00,
2013-04-05 07:22:00,54.0,54.0,29.94,North,0,0.0,1.0,99,0.00,,,0.04,,2013-04-05 14:22:00,
2013-04-05 07:36:00,53.0,53.0,29.94,North,0,0.0,1.0,99,0.00,,,0.04,,2013-04-05 14:36:00,
2013-04-05 07:42:00,53.0,53.0,29.94,North,0,0.0,1.0,99,0.00,,,0.04,,2013-04-05 14:42:00,
2013-04-05 07:53:00,53.0,53.0,29.95,NE,45,0.0,2.0,99,0.00,,,0.04,,2013-04-05 14:53:00,
2013-04-05 08:01:00,53.0,53.0,29.95,NE,45,0.0,2.0,99,0.00,,,0.04,,2013-04-05 15:01:00,
2013-04-05 08:11:00,53.0,53.0,29.95,NE,45,0.0,2.0,99,0.00,,,0.04,,2013-04-05 15:11:00,
2013-04-05 08:22:00,55.0,55.0,29.95,North,360,0.0,1.0,99,0.00,,,0.04,,2013-04-05 15:22:00,
2013-04-05 08:32:00,56.0,56.0,29.96,NE,45,1.0,4.0,99,0.00,,,0.04,,2013-04-05 15:32:00,
2013-04-05 08:43:00,56.0,56.0,29.96,NE,45,1.0,4.0,99,0.00,,,0.04,,2013-04-05 15:43:00,
2013-04-05 08:53:00,57.0,57.0,29.96,NE,45,1.0,4.0,99,0.00,,,0.04,,2013-04-05 15:53:00,
2013-04-05 09:00:00,58.0,58.0,29.97,NE,45,1.0,4.0,99,0.00,,,0.03,,2013-04-05 16:00:00,
2013-04-05 09:02:00,57.0,57.0,29.96,NE,45,1.0,4.0,99,0.00,,,0.04,,2013-04-05 16:02:00,
2013-04-05 09:13:00,57.0,57.0,29.96,NE,45,1.0,4.0,99,0.00,,,0.04,,2013-04-05 16:13:00,
2013-04-05 09:22:00,58.0,58.0,29.97,NE,45,1.0,4.0,99,0.00,,,0.03,,2013-04-05 16:22:00,
2013-04-05 09:32:00,58.0,58.0,29.97,NE,45,1.0,4.0,99,0.00,,,0.03,,2013-04-05 16:32:00,
2013-04-05 09:43:00,58.0,58.0,29.97,NE,45,1.0,4.0,99,0.00,,,0.03,,2013-04-05 16:43:00,
2013-04-05 09:52:00,58.0,58.0,29.97,NE,45,1.0,4.0,99,0.00,,,0.03,,2013-04-05 16:52:00,
2013-04-05 10:23:00,63.0,60.0,29.97,NE,45,1.0,2.0,89,0.00,,,0.03,,2013-04-05 17:23:00,
2013-04-05 10:33:00,63.0,58.0,29.96,East,90,1.0,6.0,84,0.00,,,0.03,,2013-04-05 17:33:00,
2013-04-05 10:45:00,63.0,58.0,29.96,East,90,1.0,6.0,84,0.00,,,0.03,,2013-04-05 17:45:00,
2013-04-05 10:52:00,65.0,58.0,29.97,North,360,1.0,5.0,79,0.00,,,0.03,,2013-04-05 17:52:00,
2013-04-05 11:02:00,65.0,57.0,29.96,NW,315,1.0,4.0,75,0.00,,,0.03,,2013-04-05 18:02:00,
2013-04-05 11:12:00,65.0,57.0,29.96,NW,315,1.0,4.0,75,0.00,,,0.03,,2013-04-05 18:12:00,
2013-04-05 11:22:00,63.0,57.0,29.98,North,360,3.0,9.0,81,0.00,,,0.03,,2013-04-05 18:22:00,
2013-04-05 11:32:00,62.0,56.0,29.98,NW,315,4.0,10.0,80,0.00,,,0.03,,2013-04-05 18:32:00,
2013-04-05 11:42:00,62.0,56.0,29.98,NW,315,4.0,10.0,80,0.00,,,0.03,,2013-04-05 18:42:00,
2013-04-05 11:52:00,63.0,56.0,29.98,NE,45,3.0,8.0,78,0.00,,,0.03,,2013-04-05 18:52:00,
2013-04-05 12:00:00,63.0,57.0,29.98,NW,315,5.0,12.0,80,0.00,,,0.03,,2013-04-05 19:00:00,
2013-04-05 12:02:00,63.0,56.0,29.98,NE,45,3.0,8.0,78,0.00,,,0.03,,2013-04-05 19:02:00,
2013-04-05 12:12:00,63.0,56.0,29.98,NE,45,3.0,8.0,78,0.00,,,0.03,,2013-04-05 19:12:00,
2013-04-05 12:22:00,63.0,57.0,29.98,NW,315,5.0,12.0,80,0.00,,,0.03,,2013-04-05 19:22:00,
2013-04-05 12:30:00,63.0,58.0,29.98,North,360,4.0,9.0,84,0.00,,,0.03,,2013-04-05 19:30:00,
2013-04-05 12:32:00,63.0,57.0,29.98,NW,315,5.0,12.0,80,0.00,,,0.03,,2013-04-05 19:32:00,
2013-04-05 12:42:00,63.0,57.0,29.98,NW,315,5.0,12.0,80,0.00,,,0.03,,2013-04-05 19:42:00,
2013-04-05 12:52:00,63.0,57.0,29.98,NW,315,5.0,12.0,80,0.00,,,0.03,,2013-04-05 19:52:00,
2013-04-05 13:22:00,63.0,58.0,29.98,North,360,4.0,9.0,84,0.00,,,0.03,,2013-04-05 20:22:00,
2013-04-05 13:52:00,64.0,55.0,29.98,NW,315,5.0,13.0,73,0.00,,,0.03,,2013-04-05 20:52:00,
2013-04-05 14:02:00,64.0,55.0,29.96,North,360,4.0,12.0,73,0.00,,,0.03,,2013-04-05 21:02:00,
2013-04-05 14:12:00,64.0,55.0,29.96,North,360,4.0,12.0,73,0.00,,,0.03,,2013-04-05 21:12:00,
2013-04-05 14:22:00,64.0,55.0,29.95,NW,315,4.0,11.0,72,0.00,,,0.03,,2013-04-05 21:22:00,
2013-04-05 14:32:00,64.0,55.0,29.95,NW,315,4.0,11.0,72,0.00,,,0.03,,2013-04-05 21:32:00,
2013-04-05 14:42:00,64.0,55.0,29.95,NW,315,4.0,11.0,72,0.00,,,0.03,,2013-04-05 21:42:00,
2013-04-05 14:53:00,64.0,55.0,29.95,North,360,3.0,8.0,73,0.00,,,0.03,,2013-04-05 21:53:00,
2013-04-05 15:02:00,65.0,55.0,29.96,North,360,4.0,10.0,70,0.00,,,0.03,,2013-04-05 22:02:00,
2013-04-05 15:12:00,65.0,55.0,29.96,North,360,4.0,10.0,70,0.00,,,0.03,,2013-04-05 22:12:00,
2013-04-05 15:22:00,64.0,53.0,29.96,West,270,5.0,11.0,68,0.00,,,0.03,,2013-04-05 22:22:00,
2013-04-05 15:32:00,65.0,55.0,29.95,NW,315,4.0,9.0,69,0.00,,,0.03,,2013-04-05 22:32:00,
2013-04-05 15:42:00,65.0,55.0,29.95,NW,315,4.0,9.0,69,0.00,,,0.03,,2013-04-05 22:42:00,
2013-04-05 15:52:00,64.0,54.0,29.95,West,270,4.0,9.0,70,0.00,,,0.03,,2013-04-05 22:52:00,
2013-04-05 16:02:00,63.0,54.0,29.95,NNW,338,4.0,10.0,72,0.00,,,0.03,,2013-04-05 23:02:00,
2013-04-05 16:12:00,63.0,54.0,29.95,NNW,338,4.0,10.0,72,0.00,,,0.03,,2013-04-05 23:12:00,
2013-04-05 16:22:00,65.0,54.0,29.94,North,360,4.0,11.0,68,0.00,,,0.03,,2013-04-05 23:22:00,
2013-04-05 16:32:00,65.0,54.0,29.94,North,360,4.0,11.0,68,0.00,,,0.03,,2013-04-05 23:32:00,
2013-04-05 16:42:00,65.0,54.0,29.94,North,360,4.0,11.0,68,0.00,,,0.03,,2013-04-05 23:42:00,
2013-04-05 16:52:00,64.0,54.0,29.94,West,270,5.0,13.0,71,0.00,,,0.03,,2013-04-05 23:52:00,
2013-04-05 17:02:00,64.0,54.0,29.94,West,270,5.0,13.0,71,0.00,,,0.03,,2013-04-06 00:02:00,
2013-04-05 17:12:00,64.0,54.0,29.94,West,270,5.0,13.0,71,0.00,,,0.03,,2013-04-06 00:12:00,
2013-04-05 17:22:00,64.0,54.0,29.93,North,360,5.0,10.0,70,0.00,,,0.03,,2013-04-06 00:22:00,
2013-04-05 17:32:00,64.0,54.0,29.93,North,360,4.0,8.0,71,0.00,,,0.03,,2013-04-06 00:32:00,
2013-04-05 17:43:00,64.0,54.0,29.93,North,360,4.0,8.0,71,0.00,,,0.03,,2013-04-06 00:43:00,
2013-04-05 17:52:00,63.0,53.0,29.93,WNW,292,4.0,9.0,70,0.00,,,0.03,,2013-04-06 00:52:00,
2013-04-05 18:02:00,63.0,54.0,29.94,North,360,3.0,7.0,72,0.00,,,0.03,,2013-04-06 01:02:00,
2013-04-05 18:12:00,63.0,54.0,29.94,North,360,3.0,7.0,72,0.00,,,0.03,,2013-04-06 01:12:00,
2013-04-05 18:22:00,63.0,54.0,29.95,North,360,4.0,9.0,73,0.00,,,0.03,,2013-04-06 01:22:00,
2013-04-05 18:32:00,63.0,54.0,29.95,North,360,4.0,9.0,73,0.00,,,0.03,,2013-04-06 01:32:00,
2013-04-05 18:42:00,63.0,54.0,29.95,North,360,4.0,9.0,73,0.00,,,0.03,,2013-04-06 01:42:00,
2013-04-05 18:53:00,63.0,54.0,29.95,North,360,4.0,9.0,73,0.00,,,0.03,,2013-04-06 01:53:00,
2013-04-05 19:02:00,58.0,53.0,29.94,NW,315,3.0,10.0,84,0.00,,,0.00,,2013-04-06 02:02:00,
2013-04-05 19:12:00,58.0,53.0,29.94,NW,315,3.0,10.0,84,0.00,,,0.00,,2013-04-06 02:12:00,
2013-04-05 19:22:00,57.0,53.0,29.93,NE,45,2.0,5.0,87,0.00,,,0.00,,2013-04-06 02:22:00,
2013-04-05 19:32:00,57.0,54.0,29.94,West,270,2.0,5.0,89,0.00,,,0.00,,2013-04-06 02:32:00,
2013-04-05 19:42:00,57.0,54.0,29.94,West,270,2.0,5.0,89,0.00,,,0.00,,2013-04-06 02:42:00,
2013-04-05 19:52:00,57.0,54.0,29.94,West,270,2.0,5.0,89,0.00,,,0.00,,2013-04-06 02:52:00,
2013-04-05 20:02:00,57.0,54.0,29.94,West,270,2.0,5.0,89,0.00,,,0.00,,2013-04-06 03:02:00,
2013-04-05 20:12:00,57.0,54.0,29.94,West,270,2.0,5.0,89,0.00,,,0.00,,2013-04-06 03:12:00,
2013-04-05 20:23:00,56.0,54.0,29.94,East,90,1.0,4.0,92,0.00,,,0.00,,2013-04-06 03:23:00,
2013-04-05 20:34:00,56.0,54.0,29.94,East,90,1.0,4.0,92,0.00,,,0.00,,2013-04-06 03:34:00,
2013-04-05 20:43:00,56.0,54.0,29.94,East,90,1.0,4.0,92,0.00,,,0.00,,2013-04-06 03:43:00,
2013-04-05 20:53:00,55.0,54.0,29.94,NE,45,2.0,8.0,95,0.00,,,0.00,,2013-04-06 03:53:00,
2013-04-05 21:02:00,55.0,54.0,29.94,NE,45,1.0,7.0,96,0.00,,,0.00,,2013-04-06 04:02:00,
2013-04-05 21:13:00,55.0,54.0,29.94,NE,45,1.0,7.0,96,0.00,,,0.00,,2013-04-06 04:13:00,
2013-04-05 21:22:00,55.0,54.0,29.94,NE,45,1.0,7.0,96,0.00,,,0.00,,2013-04-06 04:22:00,
2013-04-05 21:30:00,55.0,54.0,29.96,North,0,0.0,2.0,98,0.00,,,0.00,,2013-04-06 04:30:00,
2013-04-05 21:32:00,55.0,54.0,29.94,NE,45,1.0,7.0,96,0.00,,,0.00,,2013-04-06 04:32:00,
2013-04-05 21:42:00,55.0,54.0,29.94,NE,45,1.0,7.0,96,0.00,,,0.00,,2013-04-06 04:42:00,
2013-04-05 21:53:00,55.0,54.0,29.96,North,0,0.0,2.0,98,0.00,,,0.00,,2013-04-06 04:53:00,
2013-04-05 22:02:00,55.0,54.0,29.96,North,0,0.0,2.0,98,0.00,,,0.00,,2013-04-06 05:02:00,
2013-04-05 22:12:00,55.0,54.0,29.96,North,0,0.0,2.0,98,0.00,,,0.00,,2013-04-06 05:12:00,
2013-04-05 22:22:00,55.0,54.0,29.96,North,0,0.0,2.0,98,0.00,,,0.00,,2013-04-06 05:22:00,
2013-04-05 22:52:00,53.0,53.0,29.98,East,90,0.0,2.0,99,0.00,,,0.00,,2013-04-06 05:52:00,
2013-04-05 23:02:00,52.0,52.0,29.98,North,0,0.0,2.0,99,0.00,,,0.00,,2013-04-06 06:02:00,
2013-04-05 23:12:00,52.0,52.0,29.98,North,0,0.0,2.0,99,0.00,,,0.00,,2013-04-06 06:12:00,
2013-04-05 23:22:00,52.0,52.0,29.98,North,0,0.0,2.0,99,0.00,,,0.00,,2013-04-06 06:22:00,
2013-04-05 23:32:00,52.0,52.0,29.98,North,0,0.0,2.0,99,0.00,,,0.00,,2013-04-06 06:32:00,
2013-04-05 23:42:00,52.0,52.0,29.98,North,0,0.0,2.0,99,0.00,,,0.00,,2013-04-06 06:42:00,
2013-04-05 23:52:00,52.0,52.0,29.98,North,0,0.0,2.0,99,0.00,,,0.00,,2013-04-06 06:52:00,